Timestamp (UTC),Temp / °C,Chill / °C,HIndex / °C,Humid%,Dewpt / °C,Wind / ms¯¹,HiWind / ms¯¹,Winddir / °,Rain / mm,RainRate / mmhr¯¹,Pressure / hPa,InsideTemp / °C,InsideHumid%,Radiation / Wm¯²,UV
2016-03-16 00:00:00,5.3,3.1,5.3,91.0,3.9,2.7,5.4,0,0.0,0.0,1024.9,12.4,56.0,0,0
2016-03-16 00:05:00,5.3,3.5,5.3,91.0,3.9,2.2,5.4,45,0.0,0.0,1024.8,12.5,56.0,0,0
2016-03-16 00:10:00,5.3,3.9,5.3,91.0,3.9,1.8,4.5,315,0.0,0.0,1024.8,12.7,56.0,0,0
2016-03-16 00:15:00,5.2,3.0,5.2,91.0,3.9,2.7,4.5,315,0.0,0.0,1024.9,12.8,55.0,0,0
2016-03-16 00:20:00,5.2,3.8,5.2,91.0,3.8,1.8,4.5,292.5,0.0,0.0,1024.8,12.8,55.0,0,0
2016-03-16 00:25:00,5.2,3.3,5.2,91.0,3.8,2.2,4.5,337.5,0.0,0.0,1024.8,12.8,55.0,0,0
2016-03-16 00:30:00,5.2,2.6,5.2,91.0,3.8,3.1,5.8,315,0.0,0.0,1024.9,12.7,55.0,0,0
2016-03-16 00:35:00,5.1,2.9,5.1,91.0,3.8,2.7,4.9,0,0.0,0.0,1024.7,12.4,56.0,0,0
2016-03-16 00:40:00,5.1,2.5,5.1,91.0,3.8,3.1,6.3,0,0.0,0.0,1024.8,12.2,56.0,0,0
2016-03-16 00:45:00,5.1,3.2,5.1,91.0,3.7,2.2,6.3,315,0.0,0.0,1024.7,12.1,56.0,0,0
2016-03-16 00:50:00,5.1,3.2,5.1,91.0,3.7,2.2,5.4,45,0.0,0.0,1024.7,12.1,56.0,0,0
2016-03-16 00:55:00,5.0,3.6,5.0,91.0,3.7,1.8,6.7,45,0.0,0.0,1024.7,12.2,56.0,0,0
2016-03-16 01:00:00,5.0,2.7,5.0,91.0,3.7,2.7,4.9,22.5,0.0,0.0,1024.9,12.2,56.0,0,0
2016-03-16 01:05:00,4.9,2.7,4.9,91.0,3.6,2.7,5.8,337.5,0.0,0.0,1024.8,12.1,57.0,0,0
2016-03-16 01:10:00,4.9,2.3,4.9,91.0,3.6,3.1,5.4,0,0.0,0.0,1024.9,11.9,57.0,0,0
2016-03-16 01:15:00,4.9,2.6,4.9,91.0,3.5,2.7,5.4,315,0.0,0.0,1024.9,11.9,57.0,0,0
2016-03-16 01:20:00,4.9,3.0,4.9,91.0,3.5,2.2,5.4,315,0.0,0.0,1024.8,12.0,57.0,0,0
2016-03-16 01:25:00,4.8,2.6,4.8,91.0,3.5,2.7,5.4,22.5,0.0,0.0,1024.8,12.1,56.0,0,0
2016-03-16 01:30:00,4.8,2.6,4.8,91.0,3.5,2.7,5.4,0,0.0,0.0,1024.8,12.1,56.0,0,0
2016-03-16 01:35:00,4.8,2.9,4.8,91.0,3.5,2.2,5.4,315,0.0,0.0,1024.7,12.1,56.0,0,0
2016-03-16 01:40:00,4.8,2.2,4.8,91.0,3.5,3.1,5.4,0,0.0,0.0,1024.8,12.1,56.0,0,0
2016-03-16 01:45:00,4.8,2.2,4.8,91.0,3.5,3.1,5.8,0,0.0,0.0,1024.5,11.8,57.0,0,0
2016-03-16 01:50:00,4.8,2.6,4.8,91.0,3.5,2.7,5.8,337.5,0.0,0.0,1024.7,11.7,57.0,0,0
2016-03-16 01:55:00,4.8,3.4,4.8,91.0,3.5,1.8,5.4,315,0.0,0.0,1024.7,11.7,57.0,0,0
2016-03-16 02:00:00,4.8,2.9,4.8,91.0,3.5,2.2,7.2,45,0.0,0.0,1024.7,11.8,57.0,0,0
2016-03-16 02:05:00,4.8,2.2,4.8,91.0,3.5,3.1,7.2,0,0.0,0.0,1024.6,11.8,57.0,0,0
2016-03-16 02:10:00,4.8,2.6,4.8,91.0,3.5,2.7,4.9,22.5,0.0,0.0,1024.7,11.9,57.0,0,0
2016-03-16 02:15:00,4.9,2.6,4.9,91.0,3.5,2.7,5.8,292.5,0.0,0.0,1024.6,11.9,57.0,0,0
2016-03-16 02:20:00,4.9,2.3,4.9,91.0,3.5,3.1,8.0,22.5,0.0,0.0,1024.5,11.7,57.0,0,0
2016-03-16 02:25:00,4.9,2.3,4.9,91.0,3.6,3.1,6.3,0,0.0,0.0,1024.5,11.7,58.0,0,0
2016-03-16 02:30:00,4.9,2.3,4.9,91.0,3.6,3.1,7.2,0,0.0,0.0,1024.4,11.6,58.0,0,0
2016-03-16 02:35:00,4.9,2.0,4.9,91.0,3.6,3.6,6.7,292.5,0.0,0.0,1024.4,11.4,59.0,0,0
2016-03-16 02:40:00,4.9,1.8,4.9,91.0,3.6,4.0,8.0,337.5,0.0,0.0,1024.3,11.3,59.0,0,0
2016-03-16 02:45:00,4.9,1.7,4.9,91.0,3.5,4.0,8.5,337.5,0.0,0.0,1024.4,11.3,59.0,0,0
2016-03-16 02:50:00,4.8,1.9,4.8,91.0,3.5,3.6,8.0,22.5,0.0,0.0,1024.5,11.3,59.0,0,0
2016-03-16 02:55:00,4.8,2.2,4.8,91.0,3.5,3.1,6.3,22.5,0.0,0.0,1024.5,11.2,59.0,0,0
2016-03-16 03:00:00,4.8,2.2,4.8,92.0,3.6,3.1,8.0,45,0.0,0.0,1024.4,11.1,60.0,0,0
2016-03-16 03:05:00,4.8,2.6,4.8,92.0,3.6,2.7,6.3,337.5,0.0,0.0,1024.4,11.3,60.0,0,0
2016-03-16 03:10:00,4.8,2.2,4.8,92.0,3.6,3.1,6.7,337.5,0.0,0.0,1024.6,11.5,59.0,0,0
2016-03-16 03:15:00,4.8,1.9,4.8,92.0,3.6,3.6,7.2,0,0.0,0.0,1024.2,11.4,59.0,0,0
2016-03-16 03:20:00,4.8,2.6,4.8,92.0,3.6,2.7,7.2,337.5,0.0,0.0,1024.3,11.4,59.0,0,0
2016-03-16 03:25:00,4.8,1.9,4.8,92.0,3.6,3.6,8.0,337.5,0.0,0.0,1024.3,11.4,59.0,0,0
2016-03-16 03:30:00,4.8,2.1,4.8,92.0,3.6,3.1,7.2,0,0.0,0.0,1024.3,11.3,59.0,0,0
2016-03-16 03:35:00,4.8,2.9,4.8,92.0,3.6,2.2,6.7,337.5,0.0,0.0,1024.2,11.4,59.0,0,0
2016-03-16 03:40:00,4.8,2.1,4.8,92.0,3.6,3.1,8.9,337.5,0.0,0.0,1024.2,11.6,58.0,0,0
2016-03-16 03:45:00,4.8,2.5,4.8,92.0,3.6,2.7,5.8,22.5,0.0,0.0,1024.2,11.5,58.0,0,0
2016-03-16 03:50:00,4.7,1.8,4.7,92.0,3.5,3.6,8.0,0,0.0,0.0,1024.4,11.6,57.0,0,0
2016-03-16 03:55:00,4.7,2.1,4.7,92.0,3.5,3.1,8.0,337.5,0.0,0.0,1024.7,11.6,58.0,0,0
2016-03-16 04:00:00,4.7,1.5,4.7,91.0,3.4,4.0,8.0,22.5,0.0,0.0,1024.5,11.4,57.0,0,0
2016-03-16 04:05:00,4.7,2.0,4.7,92.0,3.5,3.1,5.8,337.5,0.0,0.0,1024.5,11.3,58.0,0,0
2016-03-16 04:10:00,4.7,1.7,4.7,92.0,3.5,3.6,6.7,0,0.0,0.0,1024.4,11.3,58.0,0,0
2016-03-16 04:15:00,4.7,1.4,4.7,91.0,3.3,4.0,10.3,337.5,0.0,0.0,1024.7,11.3,58.0,0,0
2016-03-16 04:20:00,4.7,2.4,4.7,92.0,3.5,2.7,5.8,22.5,0.0,0.0,1024.5,11.4,58.0,0,0
2016-03-16 04:25:00,4.7,1.4,4.7,91.0,3.3,4.0,7.2,0,0.0,0.0,1024.5,11.3,58.0,0,0
2016-03-16 04:30:00,4.6,1.6,4.6,91.0,3.3,3.6,8.5,45,0.0,0.0,1024.4,11.0,58.0,0,0
2016-03-16 04:35:00,4.6,1.9,4.6,91.0,3.3,3.1,5.8,22.5,0.0,0.0,1024.4,10.9,59.0,0,0
2016-03-16 04:40:00,4.6,1.4,4.6,91.0,3.3,4.0,8.0,22.5,0.0,0.0,1024.6,10.9,58.0,0,0
2016-03-16 04:45:00,4.6,1.4,4.6,91.0,3.3,4.0,8.9,337.5,0.0,0.0,1024.4,10.8,58.0,0,0
2016-03-16 04:50:00,4.6,1.6,4.6,91.0,3.3,3.6,8.5,292.5,0.0,0.0,1024.2,10.9,58.0,0,0
2016-03-16 04:55:00,4.6,1.4,4.6,91.0,3.3,4.0,9.4,0,0.0,0.0,1024.2,10.9,58.0,0,0
2016-03-16 05:00:00,4.6,1.6,4.6,91.0,3.3,3.6,8.9,315,0.0,0.0,1024.3,10.8,58.0,0,0
2016-03-16 05:05:00,4.7,1.7,4.7,91.0,3.3,3.6,8.0,315,0.0,0.0,1024.3,10.8,58.0,0,0
2016-03-16 05:10:00,4.7,1.4,4.7,91.0,3.3,4.0,8.5,337.5,0.0,0.0,1024.3,10.9,58.0,0,0
2016-03-16 05:15:00,4.7,1.4,4.7,91.0,3.3,4.0,8.5,337.5,0.0,0.0,1024.3,10.8,58.0,0,0
2016-03-16 05:20:00,4.7,1.5,4.7,91.0,3.4,4.0,9.8,337.5,0.0,0.0,1024.3,10.8,58.0,0,0
2016-03-16 05:25:00,4.7,1.8,4.7,91.0,3.4,3.6,6.3,337.5,0.0,0.0,1024.3,10.9,58.0,0,0
2016-03-16 05:30:00,4.8,1.6,4.8,91.0,3.4,4.0,10.3,315,0.0,0.0,1024.3,10.9,58.0,0,0
2016-03-16 05:35:00,4.8,1.8,4.8,91.0,3.4,3.6,8.5,337.5,0.0,0.0,1024.5,10.9,58.0,0,0
2016-03-16 05:40:00,4.8,1.9,4.8,91.0,3.5,3.6,6.7,22.5,0.0,0.0,1024.5,11.0,58.0,0,0
2016-03-16 05:45:00,4.8,3.4,4.8,91.0,3.5,1.8,6.7,0,0.0,0.0,1024.6,11.2,58.0,0,0
2016-03-16 05:50:00,4.9,2.6,4.9,91.0,3.5,2.7,6.7,45,0.0,0.0,1024.7,11.3,57.0,0,0
2016-03-16 05:55:00,4.9,2.3,4.9,90.0,3.4,3.1,6.3,315,0.0,0.0,1024.7,11.3,57.0,0,0
2016-03-16 06:00:00,4.9,2.0,4.9,90.0,3.4,3.6,7.2,315,0.0,0.0,1024.6,11.3,57.0,0,0
2016-03-16 06:05:00,4.9,1.7,4.9,90.0,3.4,4.0,7.2,337.5,0.0,0.0,1024.5,11.3,57.0,0,0
2016-03-16 06:10:00,4.9,2.0,4.9,90.0,3.4,3.6,8.0,292.5,0.0,0.0,1024.5,11.3,57.0,0,0
2016-03-16 06:15:00,4.9,2.0,4.9,90.0,3.4,3.6,6.7,45,0.0,0.0,1024.7,11.0,58.0,0,0
2016-03-16 06:20:00,4.9,1.7,4.9,90.0,3.4,4.0,7.2,0,0.0,0.0,1024.7,10.8,58.0,0,0
2016-03-16 06:25:00,4.9,2.7,4.9,90.0,3.4,2.7,7.2,0,0.0,0.0,1024.8,10.6,59.0,0,0
2016-03-16 06:30:00,4.9,2.3,4.9,90.0,3.4,3.1,5.8,22.5,0.0,0.0,1024.9,10.5,59.0,0,0
2016-03-16 06:35:00,4.9,3.1,4.9,90.0,3.4,2.2,4.9,45,0.0,0.0,1024.9,10.6,59.0,0,0
2016-03-16 06:40:00,5.0,2.7,5.0,90.0,3.5,2.7,5.8,22.5,0.0,0.0,1025.1,10.7,59.0,1,0
2016-03-16 06:45:00,5.0,3.1,5.0,90.0,3.5,2.2,5.8,22.5,0.0,0.0,1025.0,10.6,60.0,5,0
2016-03-16 06:50:00,5.0,3.1,5.0,90.0,3.5,2.2,4.9,315,0.0,0.0,1025.0,10.6,60.0,6,0
2016-03-16 06:55:00,5.0,3.6,5.0,90.0,3.5,1.8,4.5,22.5,0.0,0.0,1025.0,10.6,60.0,7,0
2016-03-16 07:00:00,5.1,2.2,5.1,90.0,3.6,3.6,6.7,22.5,0.0,0.0,1024.9,10.3,61.0,8,0
2016-03-16 07:05:00,5.1,2.2,5.1,90.0,3.6,3.6,7.2,0,0.0,0.0,1025.0,10.5,61.0,12,0
2016-03-16 07:10:00,5.1,3.2,5.1,90.0,3.6,2.2,4.0,0,0.0,0.0,1025.0,10.6,60.0,13,0
2016-03-16 07:15:00,5.1,3.7,5.1,90.0,3.6,1.8,4.5,0,0.0,0.0,1025.0,10.8,60.0,15,0
2016-03-16 07:20:00,5.1,5.1,5.1,90.0,3.6,1.3,4.0,337.5,0.0,0.0,1025.0,11.2,59.0,17,0
2016-03-16 07:25:00,5.1,3.3,5.1,90.0,3.6,2.2,5.4,22.5,0.0,0.0,1025.1,11.3,59.0,19,0
2016-03-16 07:30:00,5.1,3.3,5.1,90.0,3.6,2.2,4.9,45,0.0,0.0,1025.1,11.3,59.0,20,0
2016-03-16 07:35:00,5.1,3.3,5.1,90.0,3.6,2.2,5.8,22.5,0.0,0.0,1025.1,11.3,59.0,20,0
2016-03-16 07:40:00,5.1,2.9,5.1,90.0,3.6,2.7,5.8,0,0.0,0.0,1025.3,11.3,59.0,20,0
2016-03-16 07:45:00,5.1,3.3,5.1,90.0,3.6,2.2,4.5,0,0.0,0.0,1025.2,11.3,59.0,19,0
2016-03-16 07:50:00,5.1,3.7,5.1,90.0,3.6,1.8,4.9,45,0.0,0.0,1025.3,11.5,58.0,18,0
2016-03-16 07:55:00,5.2,3.8,5.2,90.0,3.7,1.8,3.6,45,0.0,0.0,1025.4,11.5,58.0,19,0
2016-03-16 08:00:00,5.2,3.8,5.2,90.0,3.7,1.8,3.6,45,0.0,0.0,1025.4,11.5,58.0,21,0
2016-03-16 08:05:00,5.2,3.4,5.2,90.0,3.7,2.2,5.4,0,0.0,0.0,1025.5,11.6,58.0,26,0
2016-03-16 08:10:00,5.2,3.4,5.2,90.0,3.7,2.2,4.5,337.5,0.0,0.0,1025.6,11.6,58.0,34,0
2016-03-16 08:15:00,5.2,3.0,5.2,90.0,3.7,2.7,4.9,22.5,0.0,0.0,1025.6,11.8,57.0,35,0
2016-03-16 08:20:00,5.3,3.9,5.3,90.0,3.8,1.8,4.0,337.5,0.0,0.0,1025.6,12.2,57.0,35,0
2016-03-16 08:25:00,5.3,3.1,5.3,90.0,3.8,2.7,4.9,45,0.0,0.0,1025.6,12.5,56.0,39,0
2016-03-16 08:30:00,5.3,3.5,5.3,90.0,3.8,2.2,4.5,0,0.0,0.0,1025.8,12.8,55.0,44,0
2016-03-16 08:35:00,5.3,4.0,5.3,90.0,3.8,1.8,4.5,22.5,0.0,0.0,1025.6,13.2,55.0,48,0
2016-03-16 08:40:00,5.3,2.8,5.3,90.0,3.8,3.1,5.4,22.5,0.0,0.0,1025.6,13.2,54.0,55,0.1
2016-03-16 08:45:00,5.4,3.6,5.4,90.0,3.9,2.2,3.6,22.5,0.0,0.0,1025.5,13.4,53.0,62,0.5
2016-03-16 08:50:00,5.4,3.7,5.4,90.0,3.9,2.2,4.5,0,0.0,0.0,1025.6,13.5,52.0,77,0.6
2016-03-16 08:55:00,5.5,3.0,5.5,90.0,4.0,3.1,6.3,22.5,0.0,0.0,1025.6,13.5,52.0,97,0.7
2016-03-16 09:00:00,5.6,3.4,5.6,90.0,4.0,2.7,4.9,22.5,0.0,0.0,1025.6,13.3,54.0,102,0.7
2016-03-16 09:05:00,5.6,3.5,5.6,90.0,4.1,2.7,4.9,22.5,0.0,0.0,1025.6,13.5,54.0,111,0.8
2016-03-16 09:10:00,5.7,3.9,5.7,90.0,4.2,2.2,4.5,22.5,0.0,0.0,1025.5,13.9,53.0,121,0.8
2016-03-16 09:15:00,5.8,4.1,5.8,90.0,4.3,2.2,5.4,22.5,0.0,0.0,1025.8,14.7,53.0,126,0.8
2016-03-16 09:20:00,5.8,3.4,5.8,90.0,4.3,3.1,6.3,22.5,0.0,0.0,1025.7,15.2,51.0,125,0.9
2016-03-16 09:25:00,5.9,3.5,5.9,89.0,4.2,3.1,5.4,0,0.0,0.0,1025.7,15.2,50.0,122,0.8
2016-03-16 09:30:00,5.9,4.7,5.9,89.0,4.3,1.8,4.0,45,0.0,0.0,1025.9,15.7,49.0,131,0.9
2016-03-16 09:35:00,6.1,3.7,6.1,89.0,4.4,3.1,5.4,45,0.0,0.0,1025.8,16.2,49.0,141,1
2016-03-16 09:40:00,6.2,4.9,6.2,89.0,4.5,1.8,5.4,45,0.0,0.0,1025.8,16.2,48.0,146,1
2016-03-16 09:45:00,6.3,4.6,6.3,88.0,4.4,2.2,4.5,67.5,0.0,0.0,1025.9,16.8,48.0,148,1.1
2016-03-16 09:50:00,6.3,4.7,6.3,88.0,4.5,2.2,6.3,22.5,0.0,0.0,1025.9,16.9,47.0,147,1.1
2016-03-16 09:55:00,6.4,4.4,6.4,88.0,4.5,2.7,4.9,22.5,0.0,0.0,1025.9,17.3,47.0,149,1.1
2016-03-16 10:00:00,6.5,5.3,6.5,87.0,4.5,1.8,4.9,22.5,0.0,0.0,1025.9,17.9,45.0,156,1.1
2016-03-16 10:05:00,6.5,4.9,6.5,87.0,4.5,2.2,4.9,45,0.0,0.0,1025.9,17.8,44.0,165,1.1
2016-03-16 10:10:00,6.6,5.0,6.6,87.0,4.5,2.2,4.9,22.5,0.0,0.0,1025.8,17.6,46.0,188,1.2
2016-03-16 10:15:00,6.7,6.7,6.7,86.0,4.5,0.4,2.2,45,0.0,0.0,1025.9,18.4,45.0,209,1.3
2016-03-16 10:20:00,6.8,4.9,6.8,86.0,4.6,2.7,4.9,0,0.0,0.0,1025.8,18.8,42.0,217,1.4
2016-03-16 10:25:00,6.8,4.9,6.8,85.0,4.5,2.7,6.3,22.5,0.0,0.0,1025.9,18.9,41.0,241,1.5
2016-03-16 10:30:00,7.0,5.1,7.0,84.0,4.5,2.7,4.5,22.5,0.0,0.0,1025.8,18.8,42.0,278,1.7
2016-03-16 10:35:00,7.4,6.4,7.4,83.0,4.7,1.8,4.0,67.5,0.0,0.0,1025.8,19.3,41.0,311,1.9
2016-03-16 10:40:00,7.8,7.8,7.8,80.0,4.6,1.3,4.9,90,0.0,0.0,1025.7,20.0,40.0,298,1.9
2016-03-16 10:45:00,8.5,8.5,8.5,78.0,4.9,0.9,2.7,90,0.0,0.0,1025.6,20.7,38.0,452,2.5
2016-03-16 10:50:00,8.8,7.6,8.8,74.0,4.4,2.2,5.4,0,0.0,0.0,1025.6,20.9,36.0,528,2.8
2016-03-16 10:55:00,8.8,7.6,8.8,75.0,4.6,2.2,4.9,22.5,0.0,0.0,1025.5,20.2,38.0,526,3
2016-03-16 11:00:00,9.0,7.8,9.0,73.0,4.4,2.2,4.9,0,0.0,0.0,1025.6,20.1,37.0,537,3
2016-03-16 11:05:00,8.9,7.4,8.9,72.0,4.1,2.7,5.4,0,0.0,0.0,1025.6,19.7,38.0,528,3.1
2016-03-16 11:10:00,8.9,7.1,8.9,71.0,3.9,3.1,5.8,45,0.0,0.0,1025.6,18.9,38.0,536,3.1
2016-03-16 11:15:00,9.1,7.6,9.1,70.0,3.9,2.7,6.3,22.5,0.0,0.0,1025.6,18.6,39.0,542,3.2
2016-03-16 11:20:00,9.3,8.6,9.3,69.0,3.9,1.8,5.8,90,0.0,0.0,1025.5,18.7,40.0,546,3.2
2016-03-16 11:25:00,9.8,9.1,9.8,66.0,3.7,1.8,4.9,90,0.0,0.0,1025.5,19.3,39.0,551,3.2
2016-03-16 11:30:00,10.2,10.2,10.2,65.0,3.9,1.8,4.5,90,0.0,0.0,1025.4,19.9,37.0,554,3.2
2016-03-16 11:35:00,10.3,10.3,10.3,64.0,3.8,2.2,5.4,112.5,0.0,0.0,1025.3,20.4,37.0,560,3.3
2016-03-16 11:40:00,10.0,10.0,10.0,65.0,3.7,1.8,4.9,0,0.0,0.0,1025.3,20.5,35.0,582,3.1
2016-03-16 11:45:00,10.3,10.3,10.3,65.0,4.0,2.2,5.8,90,0.0,0.0,1025.4,20.7,35.0,569,3.2
2016-03-16 11:50:00,10.1,10.1,10.1,66.0,4.0,2.2,5.4,45,0.0,0.0,1025.2,20.4,36.0,661,3.2
2016-03-16 11:55:00,10.2,10.2,10.2,65.0,3.9,2.7,5.4,90,0.0,0.0,1025.3,20.6,36.0,601,3.1
2016-03-16 12:00:00,10.4,10.4,10.4,65.0,4.1,2.2,6.3,22.5,0.0,0.0,1025.3,20.7,34.0,640,3.4
2016-03-16 12:05:00,10.2,10.2,10.2,66.0,4.2,1.8,5.8,112.5,0.0,0.0,1025.3,20.2,35.0,595,3.2
2016-03-16 12:10:00,10.5,10.5,10.5,65.0,4.2,2.2,4.9,112.5,0.0,0.0,1025.1,20.5,36.0,276,2.7
2016-03-16 12:15:00,10.5,10.5,10.5,64.0,4.0,2.7,4.9,0,0.0,0.0,1025.3,21.1,35.0,422,2.9
2016-03-16 12:20:00,10.3,10.3,10.3,65.0,4.0,3.1,6.7,112.5,0.0,0.0,1025.2,21.7,34.0,292,2
2016-03-16 12:25:00,9.9,8.6,9.9,66.0,3.9,2.7,6.7,337.5,0.0,0.0,1025.2,21.6,34.0,221,2.2
2016-03-16 12:30:00,9.9,9.3,9.9,67.0,4.1,1.8,4.0,90,0.0,0.0,1025.3,22.1,34.0,267,2.1
2016-03-16 12:35:00,9.9,9.9,9.9,67.0,4.0,1.3,4.5,45,0.0,0.0,1025.2,22.2,33.0,238,2
2016-03-16 12:40:00,10.0,10.0,10.0,67.0,4.2,1.3,3.6,90,0.0,0.0,1025.2,22.4,33.0,254,1.9
2016-03-16 12:45:00,10.3,10.3,10.3,66.0,4.3,1.8,4.0,90,0.0,0.0,1025.1,22.3,33.0,254,2.5
2016-03-16 12:50:00,10.2,10.2,10.2,66.0,4.1,3.1,7.2,112.5,0.0,0.0,1025.1,22.3,31.0,278,1.9
2016-03-16 12:55:00,10.0,10.0,10.0,67.0,4.2,1.8,6.7,0,0.0,0.0,1025.0,22.2,33.0,152,1.9
2016-03-16 13:00:00,10.1,10.1,10.1,67.0,4.2,2.7,5.8,90,0.0,0.0,1025.0,22.4,33.0,662,2.9
2016-03-16 13:05:00,11.0,11.0,11.0,65.0,4.7,2.2,5.8,0,0.0,0.0,1024.9,22.7,33.0,660,2.7
2016-03-16 13:10:00,11.3,11.3,11.3,62.0,4.3,2.2,5.4,67.5,0.0,0.0,1024.8,22.8,31.0,207,2.1
2016-03-16 13:15:00,10.7,10.7,10.7,64.0,4.1,2.7,6.7,22.5,0.0,0.0,1025.0,22.3,32.0,247,1.7
2016-03-16 13:20:00,10.2,10.2,10.2,64.0,3.7,3.6,6.3,22.5,0.0,0.0,1024.8,21.5,31.0,216,1.7
2016-03-16 13:25:00,10.0,10.0,10.0,65.0,3.7,2.2,5.4,90,0.0,0.0,1024.9,21.4,34.0,140,2.2
2016-03-16 13:30:00,10.1,10.1,10.1,63.0,3.4,2.7,7.2,90,0.0,0.0,1024.9,22.0,33.0,175,1.8
2016-03-16 13:35:00,10.3,10.3,10.3,63.0,3.6,1.8,4.9,90,0.0,0.0,1024.7,22.4,33.0,482,2.5
2016-03-16 13:40:00,10.7,10.7,10.7,61.0,3.5,3.1,7.2,90,0.0,0.0,1024.7,22.9,33.0,588,2.7
2016-03-16 13:45:00,10.9,10.9,10.9,60.0,3.5,3.1,6.3,90,0.0,0.0,1024.6,23.4,32.0,663,2.6
2016-03-16 13:50:00,11.1,11.1,11.1,60.0,3.6,3.1,5.8,90,0.0,0.0,1024.6,23.6,31.0,668,2.8
2016-03-16 13:55:00,11.1,11.1,11.1,60.0,3.6,3.1,5.4,67.5,0.0,0.0,1024.5,23.4,29.0,649,2.4
2016-03-16 14:00:00,10.8,10.8,10.8,60.0,3.3,2.7,8.5,22.5,0.0,0.0,1024.7,22.4,32.0,171,1.9
2016-03-16 14:05:00,10.7,10.7,10.7,60.0,3.3,2.2,5.8,22.5,0.0,0.0,1024.6,22.2,32.0,545,2.4
2016-03-16 14:10:00,11.5,11.5,11.5,60.0,4.0,1.8,4.0,112.5,0.0,0.0,1024.5,22.6,32.0,635,2.5
2016-03-16 14:15:00,11.6,11.6,11.6,58.0,3.6,2.2,5.4,67.5,0.0,0.0,1024.4,22.8,32.0,631,2.1
2016-03-16 14:20:00,10.8,10.8,10.8,58.0,2.9,2.7,6.7,22.5,0.0,0.0,1024.6,22.8,30.0,147,1.6
2016-03-16 14:25:00,10.3,10.3,10.3,59.0,2.7,3.6,8.0,90,0.0,0.0,1024.5,23.1,31.0,213,1.7
2016-03-16 14:30:00,10.3,10.3,10.3,60.0,2.9,3.6,8.0,90,0.0,0.0,1024.5,23.4,30.0,490,1.8
2016-03-16 14:35:00,10.4,10.4,10.4,61.0,3.2,4.0,6.7,112.5,0.0,0.0,1024.3,23.8,30.0,544,2.2
2016-03-16 14:40:00,10.8,10.8,10.8,61.0,3.6,3.1,6.3,90,0.0,0.0,1024.2,23.9,29.0,565,2.1
2016-03-16 14:45:00,10.9,10.9,10.9,60.0,3.4,3.1,6.7,22.5,0.0,0.0,1024.3,23.1,28.0,452,1.7
2016-03-16 14:50:00,10.4,10.4,10.4,61.0,3.2,3.1,6.3,0,0.0,0.0,1024.3,22.4,31.0,178,1.2
2016-03-16 14:55:00,10.2,10.2,10.2,63.0,3.5,1.8,4.0,22.5,0.0,0.0,1024.3,22.3,32.0,151,1.2
2016-03-16 15:00:00,10.2,10.2,10.2,63.0,3.4,2.7,5.8,90,0.0,0.0,1024.3,22.8,31.0,152,1.1
2016-03-16 15:05:00,10.1,10.1,10.1,64.0,3.6,1.3,4.9,90,0.0,0.0,1024.2,23.1,31.0,170,1
2016-03-16 15:10:00,10.1,10.1,10.1,64.0,3.6,2.7,5.4,90,0.0,0.0,1024.2,23.4,30.0,217,1.2
2016-03-16 15:15:00,10.3,10.3,10.3,64.0,3.8,2.7,5.8,67.5,0.0,0.0,1024.3,23.6,30.0,500,1.5
2016-03-16 15:20:00,10.7,10.7,10.7,63.0,3.9,2.7,6.3,90,0.0,0.0,1024.4,23.6,30.0,319,1.1
2016-03-16 15:25:00,10.4,10.4,10.4,63.0,3.7,2.2,4.5,90,0.0,0.0,1024.3,23.6,29.0,127,1.1
2016-03-16 15:30:00,10.2,10.2,10.2,64.0,3.7,2.2,5.8,45,0.0,0.0,1024.5,23.4,29.0,162,1.1
2016-03-16 15:35:00,9.9,9.3,9.9,65.0,3.7,1.8,4.9,90,0.0,0.0,1024.3,23.3,30.0,130,1
2016-03-16 15:40:00,9.7,8.7,9.7,66.0,3.7,2.2,4.9,67.5,0.0,0.0,1024.3,23.5,30.0,78,1
2016-03-16 15:45:00,9.6,8.9,9.6,66.0,3.5,1.8,5.8,90,0.0,0.0,1024.1,23.6,30.0,178,1.1
2016-03-16 15:50:00,9.6,8.2,9.6,67.0,3.7,2.7,5.8,90,0.0,0.0,1024.3,23.7,30.0,130,0.9
2016-03-16 15:55:00,9.4,8.4,9.4,67.0,3.6,2.2,4.0,90,0.0,0.0,1024.4,23.7,30.0,110,0.9
2016-03-16 16:00:00,9.4,8.7,9.4,68.0,3.8,1.8,5.4,67.5,0.0,0.0,1024.3,23.5,31.0,98,0.9
2016-03-16 16:05:00,9.3,8.2,9.3,69.0,3.9,2.2,5.4,112.5,0.0,0.0,1024.2,23.4,31.0,218,0.9
2016-03-16 16:10:00,9.4,8.3,9.4,68.0,3.8,2.2,5.8,90,0.0,0.0,1024.3,23.6,31.0,271,0.8
2016-03-16 16:15:00,9.3,7.9,9.3,67.0,3.5,2.7,5.4,90,0.0,0.0,1024.0,23.8,30.0,254,0.9
2016-03-16 16:20:00,9.4,8.0,9.4,66.0,3.4,2.7,5.8,90,0.0,0.0,1024.2,23.9,29.0,163,0.8
2016-03-16 16:25:00,9.3,8.2,9.3,67.0,3.5,2.2,4.9,67.5,0.0,0.0,1024.1,23.8,30.0,164,0.7
2016-03-16 16:30:00,9.2,7.5,9.2,66.0,3.2,3.1,8.5,112.5,0.0,0.0,1024.2,23.1,30.0,67,0.6
2016-03-16 16:35:00,9.1,7.6,9.1,67.0,3.3,2.7,6.7,45,0.0,0.0,1024.3,23.1,30.0,179,0.7
2016-03-16 16:40:00,9.1,8.3,9.1,67.0,3.3,1.8,5.8,67.5,0.0,0.0,1024.3,23.1,31.0,174,0.6
2016-03-16 16:45:00,9.1,8.3,9.1,68.0,3.5,1.8,4.5,67.5,0.0,0.0,1024.2,23.2,31.0,97,0.5
2016-03-16 16:50:00,9.0,9.0,9.0,68.0,3.4,1.3,4.5,90,0.0,0.0,1024.2,23.2,31.0,65,0.2
2016-03-16 16:55:00,8.9,8.9,8.9,68.0,3.3,0.9,4.9,90,0.0,0.0,1024.3,23.3,30.0,72,0.1
2016-03-16 17:00:00,8.8,8.0,8.8,68.0,3.3,1.8,4.5,90,0.0,0.0,1024.4,23.7,30.0,131,0
2016-03-16 17:05:00,8.8,8.0,8.8,68.0,3.3,1.8,5.8,315,0.0,0.0,1024.2,23.8,29.0,111,0
2016-03-16 17:10:00,8.7,7.2,8.7,68.0,3.1,2.7,5.4,90,0.0,0.0,1024.3,23.7,30.0,79,0
2016-03-16 17:15:00,8.7,8.7,8.7,69.0,3.3,1.3,7.2,90,0.0,0.0,1024.3,23.7,29.0,55,0
2016-03-16 17:20:00,8.5,7.6,8.5,69.0,3.1,1.8,4.5,90,0.0,0.0,1024.3,23.7,29.0,51,0
2016-03-16 17:25:00,8.4,7.5,8.4,69.0,3.0,1.8,5.4,0,0.0,0.0,1024.2,23.5,30.0,36,0
2016-03-16 17:30:00,8.2,6.9,8.2,69.0,2.9,2.2,4.9,67.5,0.0,0.0,1024.4,23.2,28.0,27,0
2016-03-16 17:35:00,8.1,7.1,8.1,69.0,2.7,1.8,4.5,67.5,0.0,0.0,1024.3,22.1,29.0,27,0
2016-03-16 17:40:00,7.8,6.9,7.8,70.0,2.7,1.8,4.9,90,0.0,0.0,1024.4,21.2,30.0,21,0
2016-03-16 17:45:00,7.7,6.7,7.7,70.0,2.6,1.8,4.9,67.5,0.0,0.0,1024.4,20.4,31.0,20,0
2016-03-16 17:50:00,7.6,7.6,7.6,70.0,2.5,1.3,4.5,90,0.0,0.0,1024.5,19.7,32.0,17,0
2016-03-16 17:55:00,7.4,6.4,7.4,71.0,2.5,1.8,4.9,90,0.0,0.0,1024.5,19.4,33.0,13,0
2016-03-16 18:00:00,7.3,5.9,7.3,71.0,2.4,2.2,4.9,90,0.0,0.0,1024.4,19.4,33.0,11,0
2016-03-16 18:05:00,7.3,7.3,7.3,72.0,2.6,1.3,4.0,67.5,0.0,0.0,1024.6,19.1,34.0,8,0
2016-03-16 18:10:00,7.2,7.2,7.2,73.0,2.7,1.3,4.5,90,0.0,0.0,1024.6,19.3,34.0,6,0
2016-03-16 18:15:00,7.2,5.7,7.2,73.0,2.7,2.2,4.5,90,0.0,0.0,1024.6,19.3,35.0,3,0
2016-03-16 18:20:00,7.1,6.0,7.1,74.0,2.7,1.8,4.0,90,0.0,0.0,1024.6,19.3,34.0,0,0
2016-03-16 18:25:00,6.9,5.8,6.9,75.0,2.8,1.8,4.5,112.5,0.0,0.0,1024.8,19.2,35.0,0,0
2016-03-16 18:30:00,6.7,5.2,6.7,75.0,2.6,2.2,4.0,90,0.0,0.0,1024.9,19.2,35.0,0,0
2016-03-16 18:35:00,6.6,4.6,6.6,76.0,2.6,2.7,4.9,90,0.0,0.0,1024.9,19.1,35.0,0,0
2016-03-16 18:40:00,6.4,4.4,6.4,77.0,2.7,2.7,4.0,112.5,0.0,0.0,1025.1,19.1,35.0,0,0
2016-03-16 18:45:00,6.2,4.2,6.2,77.0,2.5,2.7,5.4,112.5,0.0,0.0,1025.2,19.3,36.0,0,0
2016-03-16 18:50:00,6.1,4.4,6.1,78.0,2.6,2.2,5.4,90,0.0,0.0,1025.1,19.3,35.0,0,0
2016-03-16 18:55:00,6.0,4.8,6.0,78.0,2.5,1.8,4.5,112.5,0.0,0.0,1025.2,19.1,35.0,0,0
2016-03-16 19:00:00,5.9,4.2,5.9,78.0,2.3,2.2,4.9,90,0.0,0.0,1025.1,19.0,35.0,0,0
2016-03-16 19:05:00,5.8,3.4,5.8,79.0,2.4,3.1,5.8,90,0.0,0.0,1025.1,18.9,35.0,0,0
2016-03-16 19:10:00,5.7,3.5,5.7,79.0,2.3,2.7,5.4,112.5,0.0,0.0,1025.3,19.0,36.0,0,0
2016-03-16 19:15:00,5.6,3.8,5.6,79.0,2.2,2.2,4.5,112.5,0.0,0.0,1025.2,19.1,36.0,0,0
2016-03-16 19:20:00,5.4,3.3,5.4,80.0,2.3,2.7,5.4,90,0.0,0.0,1025.3,19.3,36.0,0,0
2016-03-16 19:25:00,5.3,4.0,5.3,80.0,2.2,1.8,4.0,90,0.0,0.0,1025.3,19.2,36.0,0,0
2016-03-16 19:30:00,5.3,3.9,5.3,80.0,2.1,1.8,4.0,90,0.0,0.0,1025.3,19.1,35.0,0,0
2016-03-16 19:35:00,5.2,5.2,5.2,80.0,2.0,1.3,4.9,135,0.0,0.0,1025.3,18.9,35.0,0,0
2016-03-16 19:40:00,5.2,3.3,5.2,81.0,2.2,2.2,4.0,90,0.0,0.0,1025.3,19.0,36.0,0,0
2016-03-16 19:45:00,5.1,3.7,5.1,81.0,2.1,1.8,3.1,112.5,0.0,0.0,1025.4,19.0,36.0,0,0
2016-03-16 19:50:00,5.1,5.1,5.1,81.0,2.1,1.3,3.6,112.5,0.0,0.0,1025.4,18.8,36.0,0,0
2016-03-16 19:55:00,5.1,5.1,5.1,81.0,2.1,1.3,3.1,90,0.0,0.0,1025.4,18.8,36.0,0,0
2016-03-16 20:00:00,5.1,5.1,5.1,81.0,2.1,0.9,3.1,112.5,0.0,0.0,1025.4,18.8,36.0,0,0
2016-03-16 20:05:00,5.0,5.0,5.0,82.0,2.2,1.3,3.1,90,0.0,0.0,1025.5,18.9,36.0,0,0
2016-03-16 20:10:00,4.9,3.1,4.9,82.0,2.1,2.2,3.6,90,0.0,0.0,1025.6,18.9,36.0,0,0
2016-03-16 20:15:00,4.9,3.5,4.9,82.0,2.1,1.8,3.6,90,0.0,0.0,1025.6,18.9,36.0,0,0
2016-03-16 20:20:00,4.9,3.5,4.9,82.0,2.1,1.8,4.0,90,0.0,0.0,1025.7,18.8,36.0,0,0
2016-03-16 20:25:00,4.9,3.1,4.9,82.0,2.1,2.2,4.0,90,0.0,0.0,1025.7,18.7,36.0,0,0
2016-03-16 20:30:00,4.9,3.5,4.9,82.0,2.1,1.8,4.5,90,0.0,0.0,1025.6,18.8,37.0,0,0
2016-03-16 20:35:00,4.9,4.9,4.9,82.0,2.1,1.3,4.5,90,0.0,0.0,1025.8,18.8,36.0,0,0
2016-03-16 20:40:00,4.8,3.4,4.8,82.0,2.0,1.8,4.5,22.5,0.0,0.0,1025.7,18.2,35.0,0,0
2016-03-16 20:45:00,4.8,2.5,4.8,82.0,2.0,2.7,4.5,112.5,0.0,0.0,1025.7,18.1,37.0,0,0
2016-03-16 20:50:00,4.8,2.9,4.8,81.0,1.9,2.2,4.5,112.5,0.0,0.0,1025.9,18.3,37.0,0,0
2016-03-16 20:55:00,4.8,2.9,4.8,81.0,1.8,2.2,4.5,90,0.0,0.0,1025.9,18.2,37.0,0,0
2016-03-16 21:00:00,4.8,2.6,4.8,81.0,1.9,2.7,5.8,112.5,0.0,0.0,1026.0,18.3,37.0,0,0
2016-03-16 21:05:00,4.8,2.6,4.8,81.0,1.9,2.7,4.5,90,0.0,0.0,1025.9,18.3,37.0,0,0
2016-03-16 21:10:00,4.8,2.9,4.8,81.0,1.8,2.2,4.5,90,0.0,0.0,1026.1,18.3,36.0,0,0
2016-03-16 21:15:00,4.8,3.4,4.8,81.0,1.9,1.8,3.6,90,0.0,0.0,1026.1,18.3,37.0,0,0
2016-03-16 21:20:00,4.8,2.6,4.8,80.0,1.7,2.7,4.5,112.5,0.0,0.0,1026.1,18.3,37.0,0,0
2016-03-16 21:25:00,4.9,3.5,4.9,80.0,1.7,1.8,4.0,112.5,0.0,0.0,1026.2,18.5,37.0,0,0
2016-03-16 21:30:00,4.9,3.5,4.9,80.0,1.7,1.8,4.5,90,0.0,0.0,1026.1,18.3,36.0,0,0
2016-03-16 21:35:00,4.9,3.5,4.9,80.0,1.7,1.8,4.0,90,0.0,0.0,1026.1,18.1,36.0,0,0
2016-03-16 21:40:00,4.9,3.5,4.9,80.0,1.7,1.8,4.0,67.5,0.0,0.0,1026.1,18.1,36.0,0,0
2016-03-16 21:45:00,4.9,3.0,4.9,80.0,1.7,2.2,4.0,90,0.0,0.0,1026.1,18.1,37.0,0,0
2016-03-16 21:50:00,4.8,2.9,4.8,80.0,1.7,2.2,4.9,90,0.0,0.0,1026.1,18.1,37.0,0,0
2016-03-16 21:55:00,4.9,4.9,4.9,80.0,1.7,1.3,3.6,67.5,0.0,0.0,1026.1,18.1,37.0,0,0
2016-03-16 22:00:00,4.9,3.5,4.9,80.0,1.7,1.8,3.6,90,0.0,0.0,1026.0,18.1,37.0,0,0
2016-03-16 22:05:00,4.8,4.8,4.8,80.0,1.7,1.3,3.1,90,0.0,0.0,1026.0,18.1,36.0,0,0
2016-03-16 22:10:00,4.8,4.8,4.8,80.0,1.7,0.9,3.1,90,0.0,0.0,1025.9,18.1,36.0,0,0
2016-03-16 22:15:00,4.8,4.8,4.8,80.0,1.7,1.3,3.6,90,0.0,0.0,1026.0,17.8,37.0,0,0
2016-03-16 22:20:00,4.8,4.8,4.8,80.0,1.7,1.3,4.0,90,0.0,0.0,1025.9,17.8,37.0,0,0
2016-03-16 22:25:00,4.8,3.4,4.8,80.0,1.7,1.8,4.0,90,0.0,0.0,1026.0,17.8,36.0,0,0
2016-03-16 22:30:00,4.8,2.9,4.8,80.0,1.7,2.2,5.4,90,0.0,0.0,1025.9,17.5,37.0,0,0
2016-03-16 22:35:00,4.8,4.8,4.8,80.0,1.7,0.9,3.1,90,0.0,0.0,1026.0,17.5,37.0,0,0
2016-03-16 22:40:00,4.8,4.8,4.8,80.0,1.7,0.9,3.6,112.5,0.0,0.0,1026.0,17.7,38.0,0,0
2016-03-16 22:45:00,4.8,4.8,4.8,81.0,1.9,0.9,3.1,90,0.0,0.0,1025.9,17.8,36.0,0,0
2016-03-16 22:50:00,4.8,3.4,4.8,81.0,1.9,1.8,4.5,90,0.0,0.0,1025.9,17.8,38.0,0,0
2016-03-16 22:55:00,4.8,4.8,4.8,81.0,1.9,0.9,3.6,112.5,0.0,0.0,1026.0,17.8,38.0,0,0
2016-03-16 23:00:00,4.8,4.8,4.8,81.0,1.9,0.4,3.1,45,0.0,0.0,1026.1,17.8,38.0,0,0
2016-03-16 23:05:00,4.8,4.8,4.8,81.0,1.9,1.3,4.0,90,0.0,0.0,1026.0,17.8,38.0,0,0
2016-03-16 23:10:00,4.8,4.8,4.8,81.0,1.9,0.9,4.0,112.5,0.0,0.0,1026.0,17.9,38.0,0,0
2016-03-16 23:15:00,4.8,4.8,4.8,81.0,1.9,0.9,3.1,90,0.0,0.0,1026.0,18.1,37.0,0,0